Location: Dulzura
(32.6442°N, 116.7814°W)
Time: 20:34:13
(UTC+00:00)

Cosmos 1500 Rocket - Pass Details

Date: 07 December 2021
Orbit: 602 x 632 km, 82.5° (Epoch: 16 January)

Event Time Altitude Azimuth Distance (km) Brightness Sun altitude
Rises 13:42:16 0° 198° (SSW) 2,899 7.0 -11.3°
Reaches altitude 10° 13:44:33 10° 203° (SSW) 1,999 6.1 -10.8°
Maximum altitude 13:48:51 49° 279° (W) 817 3.8 -10.0°
Drops below altitude 10° 13:53:11 10° 354° (N) 2,018 5.9 -9.1°
Sets 13:55:30 0° 360° (N) 2,929 6.8 -8.7°
